FW5356 Weather Reports


time (UTC)temp
C
wind
direction
speed
KPH
gust
KPH
rain 1hr
cm
rain 24hr
cm
rain mn
cm
humidity
%
barometer
mb
20260507040006 8 360 6.4 17.7 0.03 0.61 0.61 94 1010.9
20260507034507 9 13 4.8 17.7 0.13 0.61 0.61 94 1010.6
20260507033010 9 360 4.8 16.1 0.15 0.61 0.61 94 1010.6
20260507031502 9 34 9.7 24.1 0.20 0.61 0.61 94 1010.5
20260507030059 10 360 6.4 22.5 0.18 0.58 0.58 94 1010.6
20260507024603 10 360 3.2 20.9 0.10 0.48 0.48 94 1010.6
20260507023051 11 360 11.3 25.7 0.15 0.46 0.46 94 1010.1
20260507021547 12 346 4.8 22.5 0.20 0.41 0.41 95 1010.0
20260507020045 12 30 0.0 6.4 0.20 0.41 0.41 95 1009.8
20260507014550 13 13 3.2 20.9 0.18 0.38 0.38 95 1009.5
20260507013041 14 313 1.6 11.3 0.10 0.30 0.30 96 1009.3
20260507011541 14 242 4.8 11.3 0.00 0.20 0.20 96 1009.1
20260507010039 13 205 4.8 11.3 0.00 0.20 0.20 96 1009.1
20260507004540 13 198 6.4 12.9 0.00 0.20 0.20 96 1008.9
20260507003035 13 208 6.4 14.5 0.00 0.20 0.20 95 1008.8
20260507001546 13 226 0.0 0.0 0.00 0.20 0.20 95 1008.7
20260507000036 14 207 0.0 0.0 0.00 0.20 0.20 95 1008.7
20260506234534 14 176 0.0 0.0 0.00 0.20 0.20 95 1008.4
20260506233034 14 213 0.0 0.0 0.00 0.20 0.20 95 1008.4
20260506231531 14 203 0.0 0.0 0.00 0.20 0.20 95 1008.6
20260506230030 14 223 0.0 0.0 0.00 0.20 0.20 95 1008.5
20260506224530 14 252 0.0 0.0 0.00 0.20 0.20 95 1008.6
20260506223027 14 251 0.0 0.0 0.00 0.20 0.20 95 1008.7
20260506221526 14 182 0.0 0.0 0.00 0.20 0.20 95 1008.7
20260506220036 14 226 0.0 0.0 0.00 0.20 0.20 94 1008.8
20260506214527 14 199 0.0 0.0 0.03 0.20 0.20 94 1008.8
20260506213029 15 196 0.0 0.0 0.03 0.20 0.20 94 1008.7
20260506211522 15 192 0.0 0.0 0.05 0.20 0.20 94 1008.9
20260506210023 15 197 0.0 0.0 0.05 0.20 0.20 94 1008.9
20260506204520 15 193 0.0 0.0 0.05 0.18 0.18 93 1009.0
20260506203021 15 196 0.0 0.0 0.05 0.18 0.18 93 1009.0
20260506201517 15 209 0.0 0.0 0.03 0.15 0.15 93 1009.3
20260506200020 15 202 0.0 0.0 0.03 0.15 0.15 92 1009.3
20260506194515 15 213 0.0 0.0 0.03 0.13 0.13 91 1009.5
20260506193014 15 250 0.0 0.0 0.03 0.13 0.13 91 1009.8
20260506191514 15 213 0.0 0.0 0.03 0.13 0.13 91 1009.3
20260506190020 15 182 0.0 0.0 0.05 0.13 0.13 91 1009.4
20260506184516 15 183 0.0 0.0 0.08 0.10 0.10 91 1010.0
20260506183007 15 217 0.0 0.0 0.10 0.10 0.10 91 1010.2
20260506181506 15 303 0.0 0.0 0.08 0.08 0.08 90 1010.5
20260506180008 16 240 0.0 0.0 0.05 0.05 0.05 87 1010.7
20260506174505 16 269 0.0 0.0 0.03 0.03 0.03 84 1010.8
20260506173003 17 246 8.0 25.7 0.00 0.00 0.00 78 1010.8
20260506171502 18 221 0.0 0.0 0.00 0.00 0.00 71 1010.6
20260506170001 19 208 6.4 24.1 0.00 0.00 0.00 69 1010.3
20260506164601 19 257 11.3 29.0 0.00 0.00 0.00 69 1010.4
20260506163104 19 212 0.0 0.0 0.00 0.00 0.00 73 1010.7
20260506161558 19 207 0.0 0.0 0.00 0.00 0.00 72 1010.8
20260506160054 19 200 0.0 0.0 0.00 0.00 0.00 73 1011.2
20260506154551 18 203 0.0 0.0 0.00 0.00 0.00 73 1011.7
20260506153049 18 211 0.0 0.0 0.00 0.00 0.00 73 1011.7
20260506151549 18 184 0.0 0.0 0.00 0.00 0.00 73 1011.9
20260506150051 18 204 0.0 0.0 0.00 0.00 0.00 74 1012.0
20260506144600 18 205 0.0 20.9 0.00 0.00 0.00 75 1012.0
20260506143046 18 173 14.5 24.1 0.00 0.00 0.00 76 1011.9
20260506141543 17 194 11.3 24.1 0.00 0.00 0.00 77 1011.9
20260506140041 17 163 0.0 19.3 0.00 0.00 0.00 80 1011.8
20260506134539 16 164 9.7 17.7 0.00 0.00 0.00 80 1011.9
20260506133042 16 202 6.4 14.5 0.00 0.00 0.00 81 1012.2
20260506131537 16 211 4.8 17.7 0.00 0.00 0.00 81 1012.2
20260506130038 15 191 8.0 17.7 0.00 0.00 0.00 82 1012.3
20260506124539 15 212 6.4 19.3 0.00 0.00 0.00 82 1012.4
20260506123036 15 222 9.7 22.5 0.00 0.00 0.00 83 1012.1
20260506121534 15 198 9.7 16.1 0.00 0.00 0.00 83 1012.2
20260506120034 15 240 9.7 19.3 0.00 0.00 0.00 84 1012.4
20260506114533 14 201 8.0 19.3 0.00 0.00 0.00 84 1012.4
20260506113031 14 198 11.3 20.9 0.00 0.00 0.00 84 1012.6
20260506111529 13 281 9.7 19.3 0.00 0.00 0.00 84 1012.7
20260506110029 13 191 8.0 17.7 0.00 0.00 0.00 84 1012.7
20260506104529 13 205 8.0 14.5 0.00 0.00 0.00 85 1012.8
20260506103025 13 199 6.4 14.5 0.00 0.00 0.00 84 1012.8
20260506101524 13 197 6.4 14.5 0.00 0.00 0.00 84 1012.5
20260506100024 13 214 6.4 17.7 0.00 0.00 0.00 83 1012.5
20260506094522 13 195 9.7 17.7 0.00 0.00 0.00 83 1012.6
20260506093025 13 194 6.4 16.1 0.00 0.00 0.00 82 1012.4
20260506091521 13 177 8.0 12.9 0.00 0.00 0.00 81 1012.3
20260506090022 13 214 3.2 11.3 0.00 0.00 0.00 80 1012.5
20260506084531 13 213 3.2 12.9 0.00 0.00 0.00 79 1012.5
20260506083014 14 231 3.2 4.8 0.00 0.00 0.00 77 1012.5
20260506081512 14 228 1.6 6.4 0.00 0.00 0.00 76 1012.5
20260506073001 15 232 1.6 6.4 0.00 0.00 0.00 72 1012.6
20260506071601 16 279 3.2 8.0 0.00 0.00 0.00 71 1012.6
20260506061601 16 242 1.6 9.7 0.00 0.00 0.00 70 1012.3
20260506044551 16 200 4.8 11.3 0.00 0.00 0.00 69 1012.8
20260506043043 16 232 4.8 11.3 0.00 0.00 0.00 68 1012.8
20260506041549 17 148 6.4 16.1 0.00 0.00 0.00 66 1012.5